World > North America > United States > Texas > Junction

Hourly Junction, TX Regional Weather

Feedback E-mail the Weather

Quick WX

Junction, TX Weather Maps

°F °C°F °C
Junction Weather Map
UTC Time: 8/18/2022, 05:11
Your Time:

Junction, TX Regional Weather

Expires:202208180600;;235220
ASUS44 KSJT 180510
RWRSJT
WEST CENTRAL TEXAS REGIONAL WEATHER ROUNDUP
NATIONAL WEATHER SERVICE SAN ANGELO TX
1200 AM CDT THU AUG 18 2022

NOTE: "FAIR" INDICATES FEW OR NO CLOUDS BELOW 12,000 FEET WITH NO
SIGNIFICANT WEATHER AND/OR OBSTRUCTIONS TO VISIBILITY.


TXZ049-054-064>066-071>073-076>078-098-099-113-114-127-128-139-140-
154-155-168>170-180600-
...LOCATIONS ACROSS WEST CENTRAL TEXAS...
  
CITY           SKY/WX    TMP DP  RH WIND       PRES   REMARKS
SAN ANGELO     PTCLDY    87  60  40 S9        29.98S                  
ABILENE        PTCLDY    83  61  47 MISG      30.03R                  
DYESS AFB      PTCLDY    83  59  42 E9        30.01R                  
JUNCTION       CLEAR     85  65  51 CALM      30.01R                  
SWEETWATER     PTCLDY    84  60  45 E15       30.08R                  
BROWNWOOD      NOT AVBL                                               
COLEMAN        MOCLDY    83  61  47 NE10      30.00S                  
SAN SABA       PTCLDY    83  63  50 NE9       29.99R                  
SONORA         CLEAR     84  63  48 CALM      30.07R                  
OZONA          FAIR      81  57  44 SW3       30.06R                  
BRADY          NOT AVBL                                               
$$


SKY/WX - Weather  TMP - Temperature  DP - Dew Point  RH - Humidity
WIND - Wind Direction/Speed PRES - Barometric Pressure VSB - Visibility
WCI - Wind Chill Index E13G22 Wind - East Wind 13 mph/Gusts of 22 mph

Trending Headlines

Junction Radar Loop



Junction Quick Facts


National Two Day Weather Forecast


E-mail the Junction Weather Forecast

Voice your opinion or tell us about page issues...